AEE5K LGAV-LGIR

Flight info

Callsign AEE5K
Flight time N/A
Altitude 27000
Route KEA UL607 GIVIS T514 XAVIS
Aircraft A320/M-SDE3FGHIRWY/LB1

Departure

Time 2026-05-06 12:39
Airport Athens Eleftherios Venizelos International Airport (LGAV)

Arrival

Time N/A
Airport Heraklion International Nikos Kazantzakis Airport (LGIR)
Time Latitude Longitude Altitude Speed Heading
2026-05-06 12:04 37.94003 23.95336 301 ft 0 kts 39°
2026-05-06 12:28 37.93996 23.95330 301 ft 4 kts 39°
2026-05-06 12:29 37.93978 23.95311 301 ft 2 kts 39°
2026-05-06 12:29 37.93959 23.95291 302 ft 4 kts 44°
2026-05-06 12:29 37.93945 23.95268 300 ft 4 kts 95°
2026-05-06 12:29 37.93955 23.95244 300 ft 3 kts 126°
2026-05-06 12:30 37.93957 23.95239 300 ft 0 kts 126°
2026-05-06 12:33 37.93957 23.95240 300 ft 0 kts 126°
2026-05-06 12:33 37.93931 23.95284 301 ft 13 kts 126°
2026-05-06 12:33 37.93871 23.95383 300 ft 14 kts 127°
2026-05-06 12:33 37.93887 23.95502 296 ft 17 kts 42°
2026-05-06 12:34 37.93986 23.95601 297 ft 19 kts 38°
2026-05-06 12:34 37.94099 23.95710 297 ft 21 kts 37°
2026-05-06 12:34 37.94222 23.95828 300 ft 23 kts 37°
2026-05-06 12:34 37.94354 23.95954 299 ft 21 kts 37°
2026-05-06 12:35 37.94479 23.96075 300 ft 24 kts 37°
2026-05-06 12:35 37.94614 23.96204 299 ft 24 kts 36°
2026-05-06 12:35 37.94754 23.96337 300 ft 26 kts 37°
2026-05-06 12:35 37.94896 23.96470 302 ft 24 kts 36°
2026-05-06 12:36 37.95039 23.96601 306 ft 26 kts 37°
2026-05-06 12:36 37.95174 23.96729 303 ft 20 kts 37°
2026-05-06 12:36 37.95285 23.96843 303 ft 16 kts 57°
2026-05-06 12:36 37.95286 23.96905 304 ft 0 kts 114°
2026-05-06 12:37 37.95281 23.96922 306 ft 10 kts 114°
2026-05-06 12:38 37.95236 23.96998 309 ft 11 kts 140°
2026-05-06 12:38 37.95166 23.96993 310 ft 12 kts 212°
2026-05-06 12:38 37.95008 23.96848 309 ft 60 kts 216°
2026-05-06 12:38 37.94491 23.96356 295 ft 122 kts 217°
2026-05-06 12:39 37.93691 23.95596 412 ft 156 kts 216°
2026-05-06 12:39 37.92793 23.94850 1050 ft 155 kts 207°
2026-05-06 12:39 37.91854 23.94213 1731 ft 153 kts 207°
2026-05-06 12:39 37.90902 23.93571 2257 ft 163 kts 208°
2026-05-06 12:40 37.89835 23.92854 2591 ft 183 kts 208°
2026-05-06 12:40 37.88653 23.92053 2981 ft 203 kts 209°
2026-05-06 12:40 37.87330 23.91142 3286 ft 232 kts 210°
2026-05-06 12:40 37.85861 23.90116 3804 ft 252 kts 210°
2026-05-06 12:41 37.84296 23.89047 4840 ft 252 kts 210°
2026-05-06 12:41 37.82764 23.88008 5793 ft 254 kts 210°
2026-05-06 12:41 37.81197 23.86945 6738 ft 257 kts 210°
2026-05-06 12:41 37.79608 23.85865 7635 ft 261 kts 210°
2026-05-06 12:42 37.77945 23.84887 8474 ft 268 kts 196°
2026-05-06 12:42 37.76067 23.84820 9293 ft 277 kts 167°
2026-05-06 12:42 37.74316 23.85914 9915 ft 292 kts 137°
2026-05-06 12:42 37.73100 23.88038 10320 ft 311 kts 118°
2026-05-06 12:43 37.72048 23.90546 10552 ft 335 kts 117°
2026-05-06 12:43 37.70949 23.93243 10897 ft 352 kts 116°
2026-05-06 12:43 37.69822 23.96024 11553 ft 359 kts 116°
2026-05-06 12:43 37.68673 23.98849 12242 ft 364 kts 116°
2026-05-06 12:44 37.67498 24.01712 12922 ft 370 kts 116°
2026-05-06 12:44 37.66300 24.04605 13598 ft 375 kts 116°
2026-05-06 12:44 37.65079 24.07535 14230 ft 380 kts 116°
2026-05-06 12:44 37.63839 24.10502 14825 ft 384 kts 116°
2026-05-06 12:45 37.62584 24.13498 15403 ft 389 kts 116°
2026-05-06 12:45 37.61312 24.16536 15963 ft 394 kts 116°
2026-05-06 12:45 37.58720 24.22711 17083 ft 403 kts 116°
2026-05-06 12:46 37.57385 24.25845 17651 ft 408 kts 120°
2026-05-06 12:46 37.55723 24.28769 18207 ft 414 kts 130°
2026-05-06 12:46 37.53646 24.31316 18720 ft 419 kts 141°
2026-05-06 12:46 37.51287 24.33357 19207 ft 423 kts 149°
2026-05-06 12:47 37.48739 24.35343 19742 ft 427 kts 149°
2026-05-06 12:47 37.46208 24.37331 20258 ft 430 kts 148°
2026-05-06 12:47 37.43657 24.39339 20788 ft 434 kts 148°
2026-05-06 12:47 37.41083 24.41363 21276 ft 438 kts 148°
2026-05-06 12:48 37.38518 24.43379 21780 ft 442 kts 148°
2026-05-06 12:48 37.35904 24.45431 22273 ft 445 kts 148°
2026-05-06 12:48 37.33269 24.47497 22738 ft 448 kts 148°
2026-05-06 12:48 37.30615 24.49575 23186 ft 452 kts 148°
2026-05-06 12:49 37.27931 24.51675 23668 ft 456 kts 148°
2026-05-06 12:49 37.25229 24.53787 24046 ft 459 kts 148°
2026-05-06 12:49 37.22578 24.55856 24440 ft 461 kts 148°
2026-05-06 12:49 37.19847 24.57986 24838 ft 464 kts 148°
2026-05-06 12:50 37.17101 24.60124 25240 ft 466 kts 149°
2026-05-06 12:50 37.14341 24.62270 25619 ft 468 kts 149°
2026-05-06 12:50 37.11563 24.64423 26009 ft 471 kts 149°
2026-05-06 12:50 37.08771 24.66585 26399 ft 473 kts 149°
2026-05-06 12:51 37.05966 24.68758 26792 ft 475 kts 149°
2026-05-06 12:51 37.03149 24.70943 27040 ft 477 kts 149°
2026-05-06 12:51 37.00325 24.73133 27096 ft 479 kts 149°
2026-05-06 12:51 36.97493 24.75325 27098 ft 479 kts 149°
2026-05-06 12:52 36.94652 24.77525 27096 ft 480 kts 149°
2026-05-06 12:52 36.91814 24.79720 27098 ft 480 kts 149°
2026-05-06 12:52 36.88979 24.81911 27098 ft 479 kts 149°
2026-05-06 12:52 36.86143 24.84103 27094 ft 479 kts 149°
2026-05-06 12:53 36.83311 24.86291 27102 ft 479 kts 149°
2026-05-06 12:53 36.80480 24.88479 27099 ft 479 kts 149°
2026-05-06 12:53 36.77650 24.90670 27099 ft 479 kts 149°
2026-05-06 12:53 36.74817 24.92859 27100 ft 479 kts 149°
2026-05-06 12:54 36.71983 24.95044 27094 ft 479 kts 149°
2026-05-06 12:54 36.69151 24.97221 27092 ft 479 kts 149°
2026-05-06 12:54 36.66319 24.99397 27091 ft 479 kts 149°
2026-05-06 12:54 36.63521 25.01544 27100 ft 478 kts 149°
2026-05-06 12:55 36.60689 25.03713 26614 ft 476 kts 149°
2026-05-06 12:55 36.57877 25.05865 26072 ft 472 kts 149°
2026-05-06 12:55 36.55089 25.07997 25538 ft 469 kts 149°
2026-05-06 12:55 36.52321 25.10114 25015 ft 465 kts 149°
2026-05-06 12:56 36.49571 25.12212 24500 ft 462 kts 149°
2026-05-06 12:56 36.46844 25.14288 23973 ft 459 kts 149°
2026-05-06 12:56 36.44131 25.16353 23392 ft 457 kts 149°
2026-05-06 12:56 36.41429 25.18414 22742 ft 454 kts 149°
2026-05-06 12:57 36.38744 25.20464 22112 ft 451 kts 149°
2026-05-06 12:57 36.36087 25.22490 21541 ft 447 kts 149°
2026-05-06 12:57 36.33449 25.24495 21035 ft 443 kts 149°
2026-05-06 12:57 36.30837 25.26477 20539 ft 438 kts 149°
2026-05-06 12:58 36.28247 25.28440 20052 ft 434 kts 149°
2026-05-06 12:58 36.25680 25.30385 19574 ft 431 kts 149°
2026-05-06 12:58 36.23129 25.32319 19110 ft 427 kts 149°
2026-05-06 12:58 36.20608 25.34231 18647 ft 424 kts 149°
2026-05-06 12:59 36.18094 25.36135 18158 ft 421 kts 149°
2026-05-06 12:59 36.15603 25.38014 17628 ft 418 kts 149°
2026-05-06 12:59 36.13118 25.39836 17109 ft 413 kts 153°
2026-05-06 12:59 36.10496 25.41241 16597 ft 408 kts 162°
2026-05-06 13:00 36.07815 25.42318 16060 ft 404 kts 163°
2026-05-06 13:00 36.05153 25.43386 15518 ft 400 kts 163°
2026-05-06 13:00 36.02522 25.44444 14987 ft 395 kts 163°
2026-05-06 13:00 35.99954 25.45479 14469 ft 392 kts 163°
2026-05-06 13:01 35.97374 25.46518 14022 ft 388 kts 163°
2026-05-06 13:01 35.94887 25.47517 13582 ft 385 kts 163°
2026-05-06 13:01 35.92347 25.48536 13117 ft 383 kts 163°
2026-05-06 13:01 35.89827 25.49547 12653 ft 380 kts 163°
2026-05-06 13:02 35.87322 25.50555 12203 ft 377 kts 162°
2026-05-06 13:02 35.84838 25.51555 11753 ft 374 kts 162°
2026-05-06 13:02 35.82399 25.52536 11490 ft 363 kts 162°
2026-05-06 13:02 35.80034 25.53482 11243 ft 352 kts 162°
2026-05-06 13:03 35.77733 25.54399 10995 ft 343 kts 162°
2026-05-06 13:03 35.75526 25.55279 10754 ft 325 kts 162°
2026-05-06 13:03 35.73423 25.56117 10515 ft 313 kts 162°
2026-05-06 13:03 35.71361 25.56944 10274 ft 310 kts 160°
2026-05-06 13:04 35.69410 25.58035 10046 ft 307 kts 150°
2026-05-06 13:04 35.67646 25.59488 9796 ft 304 kts 140°
2026-05-06 13:04 35.66004 25.61120 9488 ft 303 kts 140°
2026-05-06 13:04 35.64373 25.62735 9083 ft 299 kts 140°
2026-05-06 13:05 35.62754 25.64326 8560 ft 297 kts 140°
2026-05-06 13:05 35.60999 25.65652 8131 ft 298 kts 158°
2026-05-06 13:05 35.58993 25.66170 7819 ft 295 kts 181°
2026-05-06 13:05 35.57005 25.65732 7501 ft 289 kts 205°
2026-05-06 13:06 35.55347 25.64406 7192 ft 283 kts 228°
2026-05-06 13:06 35.54239 25.62453 6876 ft 277 kts 246°
2026-05-06 13:06 35.53407 25.60324 6554 ft 276 kts 246°
2026-05-06 13:06 35.52570 25.58204 6233 ft 275 kts 246°
2026-05-06 13:07 35.51735 25.56100 5919 ft 274 kts 245°
2026-05-06 13:07 35.50902 25.54006 5610 ft 272 kts 245°
2026-05-06 13:07 35.50077 25.51928 5297 ft 270 kts 245°
2026-05-06 13:07 35.49258 25.49866 5004 ft 268 kts 245°
2026-05-06 13:08 35.48441 25.47815 4762 ft 264 kts 245°
2026-05-06 13:08 35.47650 25.45825 4628 ft 255 kts 245°
2026-05-06 13:08 35.46881 25.43899 4508 ft 247 kts 244°
2026-05-06 13:08 35.45876 25.42249 4361 ft 239 kts 221°
2026-05-06 13:09 35.44450 25.41247 4134 ft 237 kts 198°
2026-05-06 13:09 35.42821 25.41032 3829 ft 237 kts 173°
2026-05-06 13:09 35.41258 25.41626 3525 ft 236 kts 151°
2026-05-06 13:09 35.39831 25.42611 3208 ft 236 kts 150°
2026-05-06 13:10 35.38395 25.43562 3029 ft 235 kts 158°
2026-05-06 13:10 35.36797 25.43888 3017 ft 235 kts 183°
2026-05-06 13:10 35.35208 25.43462 3017 ft 234 kts 205°
2026-05-06 13:10 35.33863 25.42364 3018 ft 233 kts 227°
2026-05-06 13:11 35.32942 25.40760 3015 ft 228 kts 248°
2026-05-06 13:11 35.32564 25.38960 3014 ft 210 kts 268°
2026-05-06 13:11 35.32634 25.37231 3022 ft 199 kts 276°
2026-05-06 13:11 35.32747 25.35625 2977 ft 186 kts 276°
2026-05-06 13:12 35.32856 25.34067 2754 ft 182 kts 276°
2026-05-06 13:12 35.32963 25.32531 2494 ft 180 kts 276°
2026-05-06 13:12 35.33068 25.30987 2220 ft 183 kts 277°
2026-05-06 13:12 35.33181 25.29440 1941 ft 180 kts 276°
2026-05-06 13:13 35.33287 25.27940 1672 ft 174 kts 276°
2026-05-06 13:13 35.33390 25.26492 1414 ft 166 kts 276°
2026-05-06 13:13 35.33484 25.25146 1189 ft 151 kts 276°
2026-05-06 13:13 35.33569 25.23892 954 ft 145 kts 276°
2026-05-06 13:14 35.33654 25.22671 740 ft 144 kts 276°
2026-05-06 13:14 35.33739 25.21454 530 ft 143 kts 276°